COSMOS 2251 DEB, 33994

Orbit data source: Space-Track

COSMOS 2251 DEB, 33994 is space debris in LEO originally from a launch on Wed, 16 Jun 1993 UTC launched from the Plesetsk Missile And Space Complex (PKMTR). The debris from Iridium 33, an American commercial communications satellite, has been tracked extensively since its accidental collision with the defunct Russian satellite Cosmos 2251 in 2009. This event, occurring at high speed in low Earth orbit (LEO), generated thousands of pieces of space debris, significantly increasing the risk of further collisions. The Iridium 33 debris cloud has impacted space traffic management and orbital debris mitigation strategies, making it a subject of ongoing study in space situational awareness.

Loading next visibility...
Identifier
33994, 1993-036GD
Orbit
LEO
Country
Flag of CISCIS
Related business
Manufacturer
Unknown
Mission
Spacecraft
Bus & Motor
Unknown
Mass
Unknown
Launch date (UTC)
1993-06-16 (33 years ago)
Launch vehicle
Unknown
Launch site
Plesetsk Missile And Space Complex (PKMTR)
Object type
Payload
Rocket body
Debris
Shape & HBR
Unknown shape, 0.2 m
Radar Cross Section
Medium (>0.1 m² and <1 m²)

Expand to show TLE details & history
Last TLE update: 1 day ago

TLE from 1 day ago
0 COSMOS 2251 DEB
1 33994U 93036GD  26236.03317726  .00000169  00000-0  60081-4 0  9992
2 33994  74.0414  79.7651 0022689 155.6117 358.6000 14.41358817920834
Epoch: 2026-08-24T00:47Z
TLE epoch observation values (Epoch: 2026-08-24T00:47:46.515Z)
Latitude
24.76672°
Longitude
-92.03985°
Altitude
740.526 km
Speed
7.495 km/s
True Right ascension
16h 48m 53s
True Declination
24° 38' 09"
Sunlit
Object was in daylight at epoch
Visualization orbit readout
Latitude
Unknown
Longitude
Unknown
Altitude
Unknown
Speed
Unknown
Apparent Right ascension
Unknown
Apparent Declination
Unknown
Sunlit
N/A
Visualization observer readout
Local Sidereal Time
17:07:25
Azimuth
Unknown
Elevation
Unknown
Doppler factor
Unknown
Orbital elements
Apogee altitude
767.807 km
Perigee altitude
735.453 km
Semi-major axis
7,129.767 km
Eccentricity
0.00227
Inclination
74.0414°
RAAN
79.7651°
Arg. of periapsis
155.6117°
True anomaly
358.59363°
Mean anomaly
358.6°
Eccentric anomaly
358.59682°
Mean motion
3.60521 °/min
Orbital period
99.86 mins
BSTAR
0.000060081
Loading maneuver chart data...
Computing Atmospheric mass density...

Documentation

Showing up to 5 results
|